| time (UTC) | temp C | wind direction | speed KPH | gust KPH | rain 1hr cm | rain 24hr cm | rain mn cm | humidity % | barometer mb |
| 20260508073108 | 2 | 105 | 3.2 | 4.8 | 0.00 | 0.00 | 0.00 | 94 | 1015.4 |
| 20260508071602 | 2 | 99 | 0.0 | 3.2 | 0.00 | 0.00 | 0.00 | 92 | 1015.4 |
| 20260508064607 | 2 | 97 | 3.2 | 4.8 | 0.00 | 0.00 | 0.00 | 92 | 1015.4 |
| 20260508063100 | 2 | 97 | 3.2 | 4.8 | 0.00 | 0.00 | 0.00 | 92 | 1015.5 |
| 20260508061602 | 3 | 0 | 0.0 | 4.8 | 0.00 | 0.00 | 0.00 | 93 | 1015.3 |
| 20260508054626 | 3 | 98 | 3.2 | 6.4 | 0.00 | 0.03 | 0.00 | 91 | 1015.2 |
| 20260508053115 | 3 | 94 | 3.2 | 6.4 | 0.00 | 0.03 | 0.00 | 90 | 1015.3 |
| 20260508051602 | 3 | 0 | 1.6 | 4.8 | 0.00 | 0.03 | 0.00 | 90 | 1015.6 |
| 20260508050100 | 4 | 98 | 3.2 | 6.4 | 0.00 | 0.03 | 0.00 | 91 | 1015.5 |
| 20260508044559 | 4 | 110 | 4.8 | 11.3 | 0.00 | 0.05 | 0.00 | 90 | 1015.3 |
| 20260508043109 | 4 | 105 | 4.8 | 9.7 | 0.00 | 0.05 | 0.00 | 89 | 1015.4 |
| 20260508041602 | 5 | 111 | 4.8 | 6.4 | 0.00 | 0.05 | 0.00 | 87 | 1015.3 |
| 20260508040104 | 5 | 108 | 4.8 | 9.7 | 0.00 | 0.05 | 0.00 | 85 | 1015.0 |
| 20260508034557 | 5 | 107 | 4.8 | 6.4 | 0.00 | 0.08 | 0.05 | 84 | 1014.9 |
| 20260508033058 | 5 | 111 | 3.2 | 6.4 | 0.00 | 0.08 | 0.05 | 83 | 1014.9 |
| 20260508031605 | 5 | 103 | 3.2 | 6.4 | 0.00 | 0.08 | 0.05 | 82 | 1014.6 |
| 20260508030105 | 5 | 104 | 3.2 | 6.4 | 0.00 | 0.08 | 0.05 | 81 | 1014.5 |
| 20260508024603 | 6 | 97 | 3.2 | 6.4 | 0.00 | 0.10 | 0.05 | 79 | 1014.3 |
| 20260508023108 | 6 | 98 | 3.2 | 6.4 | 0.00 | 0.10 | 0.05 | 77 | 1014.3 |
| 20260508021608 | 6 | 92 | 3.2 | 6.4 | 0.00 | 0.10 | 0.05 | 76 | 1014.0 |
| 20260508020057 | 7 | 98 | 1.6 | 6.4 | 0.00 | 0.10 | 0.05 | 75 | 1013.8 |
| 20260508014558 | 7 | 0 | 0.0 | 0.0 | 0.00 | 0.13 | 0.05 | 75 | 1013.7 |
| 20260508013058 | 8 | 0 | 0.0 | 0.0 | 0.00 | 0.13 | 0.05 | 74 | 1013.4 |
| 20260508011606 | 8 | 0 | 0.0 | 0.0 | 0.00 | 0.13 | 0.05 | 71 | 1013.2 |
| 20260508010100 | 10 | 0 | 0.0 | 0.0 | 0.00 | 0.13 | 0.05 | 65 | 1013.0 |
| 20260508004558 | 11 | 0 | 0.0 | 0.0 | 0.00 | 0.15 | 0.05 | 61 | 1012.9 |
| 20260508003058 | 12 | 0 | 0.0 | 3.2 | 0.00 | 0.15 | 0.05 | 54 | 1012.7 |
| 20260508001600 | 12 | 0 | 1.6 | 9.7 | 0.00 | 0.15 | 0.05 | 51 | 1012.5 |
| 20260508000120 | 13 | 236 | 0.0 | 16.1 | 0.00 | 0.15 | 0.05 | 50 | 1012.2 |
| 20260507234557 | 14 | 248 | 6.4 | 17.7 | 0.00 | 0.15 | 0.05 | 45 | 1012.1 |
| 20260507233056 | 15 | 185 | 6.4 | 17.7 | 0.00 | 0.15 | 0.05 | 45 | 1012.1 |
| 20260507231614 | 15 | 109 | 4.8 | 12.9 | 0.00 | 0.15 | 0.05 | 45 | 1011.9 |
| 20260507230056 | 15 | 196 | 4.8 | 14.5 | 0.00 | 0.15 | 0.05 | 45 | 1011.8 |
| 20260507224559 | 15 | 298 | 4.8 | 16.1 | 0.00 | 0.15 | 0.05 | 45 | 1011.7 |
| 20260507223100 | 16 | 344 | 3.2 | 16.1 | 0.00 | 0.15 | 0.05 | 45 | 1011.8 |
| 20260507221602 | 16 | 253 | 4.8 | 16.1 | 0.00 | 0.15 | 0.05 | 48 | 1011.6 |
| 20260507220056 | 16 | 288 | 9.7 | 22.5 | 0.00 | 0.15 | 0.05 | 44 | 1011.6 |
| 20260507214559 | 16 | 205 | 4.8 | 16.1 | 0.00 | 0.20 | 0.05 | 46 | 1011.3 |
| 20260507213058 | 15 | 240 | 6.4 | 20.9 | 0.00 | 0.20 | 0.05 | 47 | 1011.2 |
| 20260507211606 | 16 | 305 | 9.7 | 19.3 | 0.00 | 0.20 | 0.05 | 47 | 1011.0 |
| 20260507210100 | 16 | 294 | 6.4 | 24.1 | 0.00 | 0.20 | 0.05 | 48 | 1010.7 |
| 20260507204559 | 15 | 331 | 3.2 | 17.7 | 0.00 | 0.23 | 0.05 | 48 | 1010.7 |
| 20260507203059 | 16 | 225 | 4.8 | 16.1 | 0.00 | 0.23 | 0.05 | 47 | 1010.8 |
| 20260507201600 | 16 | 231 | 12.9 | 25.7 | 0.00 | 0.23 | 0.05 | 46 | 1010.8 |
| 20260507200058 | 16 | 248 | 8.0 | 19.3 | 0.00 | 0.23 | 0.05 | 52 | 1011.0 |
| 20260507194557 | 15 | 302 | 3.2 | 17.7 | 0.00 | 0.25 | 0.05 | 53 | 1011.2 |
| 20260507193101 | 16 | 352 | 4.8 | 16.1 | 0.00 | 0.25 | 0.05 | 51 | 1011.5 |
| 20260507191559 | 15 | 313 | 3.2 | 11.3 | 0.00 | 0.25 | 0.05 | 54 | 1011.5 |
| 20260507190059 | 16 | 316 | 11.3 | 22.5 | 0.00 | 0.25 | 0.05 | 52 | 1011.7 |
| 20260507184558 | 16 | 210 | 4.8 | 19.3 | 0.00 | 0.25 | 0.05 | 51 | 1011.6 |
| 20260507183100 | 16 | 352 | 1.6 | 14.5 | 0.00 | 0.25 | 0.05 | 53 | 1011.7 |
| 20260507181557 | 15 | 223 | 6.4 | 14.5 | 0.00 | 0.25 | 0.05 | 59 | 1011.8 |
| 20260507180105 | 15 | 307 | 6.4 | 14.5 | 0.00 | 0.25 | 0.05 | 59 | 1011.9 |
| 20260507174630 | 15 | 242 | 3.2 | 19.3 | 0.00 | 0.28 | 0.05 | 57 | 1012.2 |
| 20260507173058 | 15 | 94 | 3.2 | 12.9 | 0.00 | 0.28 | 0.05 | 54 | 1012.1 |
| 20260507171618 | 13 | 238 | 4.8 | 9.7 | 0.00 | 0.28 | 0.05 | 61 | 1012.3 |
| 20260507170058 | 14 | 277 | 4.8 | 24.1 | 0.00 | 0.28 | 0.05 | 57 | 1012.4 |
| 20260507164601 | 14 | 108 | 1.6 | 8.0 | 0.00 | 0.30 | 0.05 | 62 | 1012.6 |
| 20260507163059 | 13 | 99 | 0.0 | 11.3 | 0.00 | 0.30 | 0.05 | 62 | 1012.9 |
| 20260507161559 | 13 | 239 | 1.6 | 9.7 | 0.00 | 0.30 | 0.05 | 61 | 1013.0 |
| 20260507160117 | 13 | 92 | 3.2 | 16.1 | 0.00 | 0.30 | 0.05 | 60 | 1013.0 |
| 20260507154558 | 13 | 290 | 1.6 | 12.9 | 0.00 | 0.33 | 0.05 | 57 | 1013.3 |
| 20260507153058 | 13 | 275 | 1.6 | 8.0 | 0.00 | 0.33 | 0.05 | 60 | 1013.3 |
| 20260507151600 | 12 | 243 | 0.0 | 4.8 | 0.00 | 0.33 | 0.05 | 63 | 1013.4 |
| 20260507144559 | 11 | 0 | 0.0 | 9.7 | 0.00 | 0.36 | 0.05 | 68 | 1013.5 |
| 20260507143108 | 11 | 289 | 3.2 | 9.7 | 0.00 | 0.36 | 0.05 | 67 | 1013.7 |
| 20260507141626 | 11 | 324 | 3.2 | 8.0 | 0.00 | 0.36 | 0.05 | 75 | 1014.0 |
| 20260507140112 | 11 | 0 | 0.0 | 3.2 | 0.00 | 0.36 | 0.05 | 81 | 1014.1 |
| 20260507134600 | 10 | 229 | 1.6 | 8.0 | 0.00 | 0.36 | 0.05 | 81 | 1014.1 |
| 20260507133105 | 10 | 265 | 1.6 | 4.8 | 0.00 | 0.36 | 0.05 | 84 | 1014.1 |
| 20260507131620 | 10 | 0 | 0.0 | 1.6 | 0.00 | 0.36 | 0.05 | 85 | 1014.2 |
| 20260507130107 | 10 | 0 | 0.0 | 0.0 | 0.00 | 0.36 | 0.05 | 87 | 1014.3 |
| 20260507124603 | 9 | 0 | 0.0 | 4.8 | 0.00 | 0.38 | 0.05 | 90 | 1014.2 |
| 20260507123105 | 9 | 0 | 0.0 | 0.0 | 0.00 | 0.38 | 0.05 | 93 | 1014.3 |
| 20260507121601 | 9 | 0 | 0.0 | 0.0 | 0.00 | 0.38 | 0.05 | 94 | 1014.2 |
| 20260507120057 | 9 | 0 | 0.0 | 0.0 | 0.00 | 0.38 | 0.05 | 95 | 1014.3 |
| 20260507114557 | 9 | 0 | 0.0 | 0.0 | 0.00 | 0.41 | 0.05 | 95 | 1014.2 |
| 20260507113128 | 9 | 0 | 0.0 | 0.0 | 0.00 | 0.41 | 0.05 | 96 | 1014.0 |
| 20260507111559 | 8 | 0 | 0.0 | 0.0 | 0.00 | 0.41 | 0.05 | 96 | 1013.8 |
| 20260507110103 | 8 | 0 | 0.0 | 0.0 | 0.00 | 0.41 | 0.05 | 96 | 1013.6 |
| 20260507104609 | 9 | 0 | 0.0 | 0.0 | 0.00 | 0.76 | 0.05 | 96 | 1013.4 |
| 20260507103059 | 8 | 0 | 0.0 | 0.0 | 0.00 | 0.76 | 0.05 | 96 | 1013.3 |
| 20260507101558 | 9 | 0 | 0.0 | 0.0 | 0.00 | 0.76 | 0.05 | 96 | 1013.4 |
| 20260507100100 | 8 | 0 | 0.0 | 0.0 | 0.00 | 0.76 | 0.05 | 96 | 1013.4 |
| 20260507094615 | 8 | 0 | 0.0 | 0.0 | 0.00 | 1.17 | 0.05 | 96 | 1013.3 |
| 20260507093057 | 8 | 0 | 0.0 | 0.0 | 0.00 | 1.17 | 0.05 | 96 | 1013.2 |
| 20260507091555 | 8 | 0 | 0.0 | 0.0 | 0.00 | 1.17 | 0.05 | 95 | 1013.2 |
| 20260507090056 | 9 | 0 | 0.0 | 0.0 | 0.00 | 1.17 | 0.05 | 96 | 1013.1 |
| 20260507084601 | 9 | 0 | 0.0 | 0.0 | 0.00 | 1.32 | 0.05 | 96 | 1013.1 |
| 20260507083056 | 9 | 0 | 0.0 | 0.0 | 0.00 | 1.32 | 0.05 | 96 | 1013.3 |
| 20260507081556 | 9 | 0 | 0.0 | 0.0 | 0.00 | 1.32 | 0.05 | 95 | 1013.3 |
| 20260507074558 | 9 | 0 | 0.0 | 0.0 | 0.00 | 1.32 | 0.05 | 95 | 1013.2 |